(39628) = 1994 PJ24 = 1994 RL28 = 2000 YH37

Discovered at La Silla on 1994-08-12 by E. W. Elst.

Orbit

Orbit type: Main Belt

Note: WebGL enabled browser required.

epoch2024-03-31.0
epoch JD2460400.5
perihelion date2021-11-30.29903
perihelion JD2459548.79903
argument of perihelion (°)142.31911
ascending node (°)141.26533
inclination (°)5.05582
eccentricity0.0273621
perihelion distance (AU)2.7054359
Tisserand w.r.t. Jupiter3.3
ΔV w.r.t. Earth (km/sec)10.4
semimajor axis (AU)2.7815449
mean anomaly (°)180.95137
mean daily motion (°/day)0.21245880
aphelion distance (AU)2.858
period (years)4.64
P-vector [x]0.23636622
P-vector [y]-0.91154086
P-vector [z]-0.33648813
Q-vector [x]0.97009813
Q-vector [y]0.24103592
Q-vector [z]0.02848345
absolute magnitude15.02
phase slope0.15
uncertainty0
referenceMPEC 2024-F62
observations used1480
oppositions21
arc length (days)11288
first opposition used1993
last opposition used2024
residual rms (arc-secs)0.70
perturbers coarse indicatorM-v
perturbers precise indicator003Ek
first observation date used1993-04-24.0
last observation date used2024-03-20.0
computer nameMPCLINUX
JD of orbit computation2456966.886405
perihelion JD uncertainty (days)7.8470E-04
argument of perihelion uncertainty (°)1.7546E-04
ascending node uncertainty (°)6.4234E-05
inclination uncertainty (°)6.6361E-06
eccentricity uncertainty 4.3050E-08
perihelion distance uncertainty (AU)1.1529E-07
Minimum Orbit Intersection Distances (in AU)
for orbit epoch: 2460400.5, reference: E2024-F62
Mercury2.24907
Venus1.98096
Earth1.69096
Mars1.14733
Jupiter2.17019
Saturn6.19203
Uranus15.6195
Neptune27.0157

Observations

1513 total observations over interval: 1993 04 24.41901 – 2024 03 20.151042
These data are available for download (format description).

Date (UT) J2000 RA J2000 Dec Magn Location Ref
1993 04 24.41901 15 15 13.26 -09 59 19.9 19.5 V 691 – Steward Observatory, Kitt Peak-Spacewatch MPS 26315
1993 04 24.43915 15 15 12.27 -09 59 13.7   691 – Steward Observatory, Kitt Peak-Spacewatch MPS 26315
1994 08 12.27708 22 25 54.16 -10 51 49.3   809 – European Southern Observatory, La Silla MPC 24507
1994 08 12.28889 22 25 53.58 -10 51 54.5   809 – European Southern Observatory, La Silla MPC 24507
1994 08 12.30069 22 25 52.96 -10 51 59.6   809 – European Southern Observatory, La Silla MPC 24507
1994 08 13.18958 22 25 15.05 -10 57 29.9 18.7   809 – European Southern Observatory, La Silla MPC 24507
1994 08 13.20139 22 25 14.50 -10 57 34.5   809 – European Southern Observatory, La Silla MPC 24507
1994 08 13.21319 22 25 13.92 -10 57 39.4   809 – European Southern Observatory, La Silla MPC 24507
1994 09 05.13056 22 07 36.61 -13 20 12.1   809 – European Southern Observatory, La Silla MPC 26874
1994 09 05.14375 22 07 35.96 -13 20 16.6   809 – European Southern Observatory, La Silla MPC 26874
1994 09 05.15694 22 07 35.27 -13 20 21.2   809 – European Southern Observatory, La Silla MPC 26874
1994 09 06.12708 22 06 52.53 -13 25 54.3 18.5   809 – European Southern Observatory, La Silla MPC 26874
1994 09 06.14028 22 06 51.93 -13 25 59.4   809 – European Southern Observatory, La Silla MPC 26874
1994 09 06.15347 22 06 51.36 -13 26 03.8   809 – European Southern Observatory, La Silla MPC 26874
1999 09 07.41615 00 54 00.91 +00 22 27.4 19.3   704 – Lincoln Laboratory ETS, New Mexico MPS 24763
1999 09 07.42755 00 54 00.47 +00 22 22.9 19.4   704 – Lincoln Laboratory ETS, New Mexico MPS 24763
1999 09 07.43891 00 54 00.12 +00 22 19.5 19.3   704 – Lincoln Laboratory ETS, New Mexico MPS 24763
2000 12 30.29727 06 56 45.73 +17 51 42.4 18.6   704 – Lincoln Laboratory ETS, New Mexico MPS 24172
2000 12 30.31211 06 56 44.90 +17 51 44.5 19.1   704 – Lincoln Laboratory ETS, New Mexico MPS 24172
2000 12 30.32698 06 56 43.99 +17 51 46.6 19.1   704 – Lincoln Laboratory ETS, New Mexico MPS 24172
2000 12 30.34194 06 56 43.13 +17 51 49.0 18.5   704 – Lincoln Laboratory ETS, New Mexico MPS 24172
2000 12 30.35674 06 56 42.26 +17 51 50.6 18.7   704 – Lincoln Laboratory ETS, New Mexico MPS 24172
2001 01 02.29418 06 53 55.88 +17 59 04.4 18.7   704 – Lincoln Laboratory ETS, New Mexico MPS 24172
2001 01 02.29424 06 53 55.83 +17 59 03.0 18.2   704 – Lincoln Laboratory ETS, New Mexico MPS 24172
2001 01 02.30900 06 53 54.96 +17 59 05.4 18.2   704 – Lincoln Laboratory ETS, New Mexico MPS 24172
2001 01 02.31016 06 53 54.88 +17 59 06.2 19.1   704 – Lincoln Laboratory ETS, New Mexico MPS 24172
2001 01 02.32455 06 53 53.98 +17 59 07.3 18.8   704 – Lincoln Laboratory ETS, New Mexico MPS 24172
2001 01 02.33969 06 53 53.12 +17 59 10.6 17.9   704 – Lincoln Laboratory ETS, New Mexico MPS 24172
2001 01 02.35646 06 53 52.16 +17 59 13.5 18.9   704 – Lincoln Laboratory ETS, New Mexico MPS 24172
2001 01 03.30373 06 52 58.38 +18 01 34.9 18.4   704 – Lincoln Laboratory ETS, New Mexico MPS 24172
2001 01 03.31846 06 52 57.46 +18 01 36.8 18.9   704 – Lincoln Laboratory ETS, New Mexico MPS 24172
2001 01 03.33320 06 52 56.59 +18 01 40.5 19.3   704 – Lincoln Laboratory ETS, New Mexico MPS 24172
2001 01 03.34807 06 52 55.70 +18 01 42.1 19.4   704 – Lincoln Laboratory ETS, New Mexico MPS 24172
2001 01 03.36282 06 52 54.83 +18 01 43.2 19.5   704 – Lincoln Laboratory ETS, New Mexico MPS 24172
2001 01 04.22191 06 52 06.32 +18 03 54.8 18.3   704 – Lincoln Laboratory ETS, New Mexico MPS 24172
2001 01 04.23706 06 52 05.45 +18 03 56.8 18.8   704 – Lincoln Laboratory ETS, New Mexico MPS 24172
2001 01 04.25222 06 52 04.60 +18 03 59.8 18.5   704 – Lincoln Laboratory ETS, New Mexico MPS 24172
2002 03 09.39122 13 30 17.42 -03 25 23.1 19.0   704 – Lincoln Laboratory ETS, New Mexico MPS 51287
2002 03 09.41236 13 30 16.95 -03 25 16.1 19.0   704 – Lincoln Laboratory ETS, New Mexico MPS 51287
2002 03 09.43373 13 30 16.39 -03 25 09.4 19.4   704 – Lincoln Laboratory ETS, New Mexico MPS 51287
2002 03 09.45558 13 30 15.83 -03 25 05.3 19.7   704 – Lincoln Laboratory ETS, New Mexico MPS 51287
2002 03 09.47673 13 30 15.24 -03 24 58.3 19.5   704 – Lincoln Laboratory ETS, New Mexico MPS 51287
2002 03 16.38205 13 26 56.49 -02 47 39.4 19.1   704 – Lincoln Laboratory ETS, New Mexico MPS 51287
2002 03 16.39600 13 26 56.01 -02 47 35.5 20.0   704 – Lincoln Laboratory ETS, New Mexico MPS 51287
2002 03 16.40991 13 26 55.55 -02 47 29.6 20.1   704 – Lincoln Laboratory ETS, New Mexico MPS 51287
2002 03 16.42391 13 26 55.03 -02 47 25.5 19.2   704 – Lincoln Laboratory ETS, New Mexico MPS 51287
2002 03 16.43785 13 26 54.53 -02 47 20.3 19.1   704 – Lincoln Laboratory ETS, New Mexico MPS 51287
2002 04 02.50366 13 15 18.35 -01 03 02.3 19.6   644 – Palomar Mountain/NEAT MPS 54210
2002 04 02.51435 13 15 17.87 -01 02 57.9 19.8   644 – Palomar Mountain/NEAT MPS 54210
2002 04 02.52521 13 15 17.32 -01 02 54.1 19.3   644 – Palomar Mountain/NEAT MPS 54210
2002 04 08.40737 13 10 40.24 -00 26 57.5 18.3   644 – Palomar Mountain/NEAT MPS 54210
2002 04 08.41832 13 10 39.71 -00 26 53.7 18.2   644 – Palomar Mountain/NEAT MPS 54210
2002 04 08.42908 13 10 39.18 -00 26 49.8 18.6   644 – Palomar Mountain/NEAT MPS 54210
2002 04 09.23297 13 10 01.16 -00 22 03.3 18.7 R 699 – Lowell Observatory-LONEOS MPS 54210
2002 04 09.24958 13 10 00.35 -00 21 57.0   699 – Lowell Observatory-LONEOS MPS 54210
2002 04 09.26607 13 09 59.58 -00 21 51.5   699 – Lowell Observatory-LONEOS MPS 54210
2002 04 09.27809 13 09 59.03 -00 21 47.2 18.7   644 – Palomar Mountain/NEAT MPS 54210
2002 04 09.28262 13 09 58.80 -00 21 45.7   699 – Lowell Observatory-LONEOS MPS 54210
2002 04 09.28916 13 09 58.48 -00 21 43.4 18.3   644 – Palomar Mountain/NEAT MPS 54210
2002 04 09.30012 13 09 57.93 -00 21 39.4 18.1   644 – Palomar Mountain/NEAT MPS 54210
2002 04 10.30120 13 09 10.29 -00 15 44.8 18.9   704 – Lincoln Laboratory ETS, New Mexico MPS 54210
2002 04 10.31304 13 09 09.71 -00 15 40.7 19.3   704 – Lincoln Laboratory ETS, New Mexico MPS 54210
2002 04 10.34816 13 09 07.98 -00 15 28.2 19.6   704 – Lincoln Laboratory ETS, New Mexico MPS 54210
2002 04 14.22265 13 06 05.11 +00 06 29.0 19.3 V 333 – Desert Eagle Observatory MPS 54210
2002 04 14.24622 13 06 03.97 +00 06 35.9 19.1 V 333 – Desert Eagle Observatory MPS 54210
2002 04 14.26975 13 06 02.77 +00 06 44.7 19.7 V 333 – Desert Eagle Observatory MPS 54210
2002 04 15.22633 13 05 18.24 +00 11 56.4 20.1 V 333 – Desert Eagle Observatory MPS 54210
2002 04 15.24961 13 05 17.06 +00 12 04.7 19.6 V 333 – Desert Eagle Observatory MPS 54210
2002 04 15.27397 13 05 15.90 +00 12 13.4 19.1 V 333 – Desert Eagle Observatory MPS 54210
2002 04 16.20374 13 04 32.98 +00 17 12.1 19.8 V 333 – Desert Eagle Observatory MPS 54210
2002 04 16.23917 13 04 31.32 +00 17 23.5 19.7 V 333 – Desert Eagle Observatory MPS 54210
2002 04 16.26079 13 04 30.28 +00 17 28.3 18.6   704 – Lincoln Laboratory ETS, New Mexico MPS 54210
2002 04 16.26273 13 04 30.17 +00 17 30.6 19.3 V 333 – Desert Eagle Observatory MPS 54210
2002 04 16.27484 13 04 29.62 +00 17 33.2 19.0   704 – Lincoln Laboratory ETS, New Mexico MPS 54210
2002 04 16.28887 13 04 28.91 +00 17 37.6 19.3   704 – Lincoln Laboratory ETS, New Mexico MPS 54210
2002 04 16.30291 13 04 28.26 +00 17 43.3 20.0   704 – Lincoln Laboratory ETS, New Mexico MPS 54210
2002 04 16.31695 13 04 27.64 +00 17 46.8 19.9   704 – Lincoln Laboratory ETS, New Mexico MPS 54210
2002 05 07.23559 12 51 04.53 +01 37 43.5 19.8   704 – Lincoln Laboratory ETS, New Mexico MPS 54198
2002 05 07.24787 12 51 04.20 +01 37 44.6 20.0   704 – Lincoln Laboratory ETS, New Mexico MPS 54198
2002 05 07.26019 12 51 03.83 +01 37 45.4 19.6   704 – Lincoln Laboratory ETS, New Mexico MPS 54198
2003 06 24.04884 20 34 53.74 -15 10 08.3 19.3 R 599 – Campo Imperatore-CINEOS MPS 81779
2003 06 24.06007 20 34 53.44 -15 10 09.8 18.9 R 599 – Campo Imperatore-CINEOS MPS 81779
2003 06 24.07201 20 34 53.08 -15 10 11.5 19.1 R 599 – Campo Imperatore-CINEOS MPS 81779
2003 06 24.08343 20 34 52.88 -15 10 13.3 20.7 R 599 – Campo Imperatore-CINEOS MPS 81779
2003 06 26.32286 20 33 51.12 -15 15 49.9 18.3   704 – Lincoln Laboratory ETS, New Mexico MPS 81779
